Year,Month,Day,Hour,Minute,Value (Times are PST for temperature in C)
2006,10,11,00,00,7.10
2006,10,11,00,01,7.10
2006,10,11,00,02,7.10
2006,10,11,00,03,7.10
2006,10,11,00,04,7.10
2006,10,11,00,05,7.20
2006,10,11,00,06,7.20
2006,10,11,00,07,7.20
2006,10,11,00,08,7.20
2006,10,11,00,09,7.20
2006,10,11,00,10,7.30
2006,10,11,00,11,7.30
2006,10,11,00,12,7.30
2006,10,11,00,13,7.30
2006,10,11,00,14,7.30
2006,10,11,00,15,7.30
2006,10,11,00,16,7.20
2006,10,11,00,17,7.20
2006,10,11,00,18,7.20
2006,10,11,00,19,7.20
2006,10,11,00,20,7.10
2006,10,11,00,21,7.10
2006,10,11,00,22,7.00
2006,10,11,00,23,7.00
2006,10,11,00,24,7.00
2006,10,11,00,25,6.90
2006,10,11,00,26,6.90
2006,10,11,00,27,6.80
2006,10,11,00,28,6.80
2006,10,11,00,29,6.80
2006,10,11,00,30,6.80
2006,10,11,00,31,6.80
2006,10,11,00,32,6.80
2006,10,11,00,33,6.80
2006,10,11,00,34,6.80
2006,10,11,00,35,6.80
2006,10,11,00,36,6.80
2006,10,11,00,37,6.80
2006,10,11,00,38,6.70
2006,10,11,00,39,6.70
2006,10,11,00,40,6.70
2006,10,11,00,41,6.70
2006,10,11,00,42,6.70
2006,10,11,00,43,6.70
2006,10,11,00,44,6.70
2006,10,11,00,45,6.70
2006,10,11,00,46,6.70
2006,10,11,00,47,6.70
2006,10,11,00,48,6.70
2006,10,11,00,49,6.70
2006,10,11,00,50,6.70
2006,10,11,00,51,6.70
2006,10,11,00,52,6.70
2006,10,11,00,53,6.60
2006,10,11,00,54,6.60
2006,10,11,00,55,6.60
2006,10,11,00,56,6.60
2006,10,11,00,57,6.60
2006,10,11,00,58,6.60
2006,10,11,00,59,6.60
2006,10,11,01,00,6.60
2006,10,11,01,01,6.60
2006,10,11,01,02,6.60
2006,10,11,01,03,6.50
2006,10,11,01,04,6.50
2006,10,11,01,05,6.50
2006,10,11,01,06,6.40
2006,10,11,01,07,6.40
2006,10,11,01,08,6.40
2006,10,11,01,09,6.40
2006,10,11,01,10,6.40
2006,10,11,01,11,6.40
2006,10,11,01,12,6.40
2006,10,11,01,13,6.40
2006,10,11,01,14,6.30
2006,10,11,01,15,6.30
2006,10,11,01,16,6.30
2006,10,11,01,17,6.30
2006,10,11,01,18,6.30
2006,10,11,01,19,6.30
2006,10,11,01,20,6.20
2006,10,11,01,21,6.20
2006,10,11,01,22,6.20
2006,10,11,01,23,6.20
2006,10,11,01,24,6.20
2006,10,11,01,25,6.20
2006,10,11,01,26,6.20
2006,10,11,01,27,6.20
2006,10,11,01,28,6.20
2006,10,11,01,29,6.20
2006,10,11,01,30,6.20
2006,10,11,01,31,6.20
2006,10,11,01,32,6.20
2006,10,11,01,33,6.20
2006,10,11,01,34,6.20
2006,10,11,01,35,6.20
2006,10,11,01,36,6.10
2006,10,11,01,37,6.10
2006,10,11,01,38,6.10
2006,10,11,01,39,6.10
2006,10,11,01,40,6.10
2006,10,11,01,41,6.10
2006,10,11,01,42,6.10
2006,10,11,01,43,6.10
2006,10,11,01,44,6.10
2006,10,11,01,45,6.10
2006,10,11,01,46,6.10
2006,10,11,01,47,6.10
2006,10,11,01,48,6.10
2006,10,11,01,49,6.10
2006,10,11,01,50,6.00
2006,10,11,01,51,6.00
2006,10,11,01,52,6.00
2006,10,11,01,53,6.00
2006,10,11,01,54,6.00
2006,10,11,01,55,6.00
2006,10,11,01,56,6.00
2006,10,11,01,57,6.00
2006,10,11,01,58,6.00
2006,10,11,01,59,6.00
2006,10,11,02,00,6.00
2006,10,11,02,01,6.00
2006,10,11,02,02,6.10
2006,10,11,02,03,6.00
2006,10,11,02,04,6.00
2006,10,11,02,05,6.00
2006,10,11,02,06,5.90
2006,10,11,02,07,5.90
2006,10,11,02,08,5.90
2006,10,11,02,09,5.90
2006,10,11,02,10,5.90
2006,10,11,02,11,5.80
2006,10,11,02,12,5.80
2006,10,11,02,13,5.90
2006,10,11,02,14,5.90
2006,10,11,02,15,5.90
2006,10,11,02,16,5.90
2006,10,11,02,17,5.80
2006,10,11,02,18,5.80
2006,10,11,02,19,5.80
2006,10,11,02,20,5.90
2006,10,11,02,21,5.80
2006,10,11,02,22,5.80
2006,10,11,02,23,5.80
2006,10,11,02,24,5.80
2006,10,11,02,25,5.80
2006,10,11,02,26,5.80
2006,10,11,02,27,5.80
2006,10,11,02,28,5.70
2006,10,11,02,29,5.70
2006,10,11,02,30,5.70
2006,10,11,02,31,5.70
2006,10,11,02,32,5.70
2006,10,11,02,33,5.70
2006,10,11,02,34,5.70
2006,10,11,02,35,5.70
2006,10,11,02,36,5.70
2006,10,11,02,37,5.70
2006,10,11,02,38,5.60
2006,10,11,02,39,5.60
2006,10,11,02,40,5.60
2006,10,11,02,41,5.60
2006,10,11,02,42,5.60
2006,10,11,02,43,5.60
2006,10,11,02,44,5.60
2006,10,11,02,45,5.50
2006,10,11,02,46,5.50
2006,10,11,02,47,5.50
2006,10,11,02,48,5.50
2006,10,11,02,49,5.50
2006,10,11,02,50,5.50
2006,10,11,02,51,5.40
2006,10,11,02,52,5.40
2006,10,11,02,53,5.40
2006,10,11,02,54,5.40
2006,10,11,02,55,5.40
2006,10,11,02,56,5.40
2006,10,11,02,57,5.40
2006,10,11,02,58,5.40
2006,10,11,02,59,5.40
2006,10,11,03,00,5.40
2006,10,11,03,01,5.40
2006,10,11,03,02,5.40
2006,10,11,03,03,5.40
2006,10,11,03,04,5.40
2006,10,11,03,05,5.40
2006,10,11,03,06,5.40
2006,10,11,03,07,5.40
2006,10,11,03,08,5.40
2006,10,11,03,09,5.40
2006,10,11,03,10,5.40
2006,10,11,03,11,5.40
2006,10,11,03,12,5.30
2006,10,11,03,13,5.30
2006,10,11,03,14,5.30
2006,10,11,03,15,5.30
2006,10,11,03,16,5.30
2006,10,11,03,17,5.30
2006,10,11,03,18,5.30
2006,10,11,03,19,5.30
2006,10,11,03,20,5.30
2006,10,11,03,21,5.30
2006,10,11,03,22,5.30
2006,10,11,03,23,5.30
2006,10,11,03,24,5.30
2006,10,11,03,25,5.30
2006,10,11,03,26,5.20
2006,10,11,03,27,5.20
2006,10,11,03,28,5.20
2006,10,11,03,29,5.20
2006,10,11,03,30,5.20
2006,10,11,03,31,5.20
2006,10,11,03,32,5.20
2006,10,11,03,33,5.20
2006,10,11,03,34,5.20
2006,10,11,03,35,5.20
2006,10,11,03,36,5.20
2006,10,11,03,37,5.20
2006,10,11,03,38,5.20
2006,10,11,03,39,5.20
2006,10,11,03,40,5.20
2006,10,11,03,41,5.20
2006,10,11,03,42,5.20
2006,10,11,03,43,5.20
2006,10,11,03,44,5.20
2006,10,11,03,45,5.20
2006,10,11,03,46,5.20
2006,10,11,03,47,5.20
2006,10,11,03,48,5.20
2006,10,11,03,49,5.10
2006,10,11,03,50,5.10
2006,10,11,03,51,5.10
2006,10,11,03,52,5.10
2006,10,11,03,53,5.10
2006,10,11,03,54,5.10
2006,10,11,03,55,5.10
2006,10,11,03,56,5.20
2006,10,11,03,57,5.20
2006,10,11,03,58,5.30
2006,10,11,03,59,5.30
2006,10,11,04,00,5.30
2006,10,11,04,01,5.40
2006,10,11,04,02,5.40
2006,10,11,04,03,5.40
2006,10,11,04,04,5.40
2006,10,11,04,05,5.30
2006,10,11,04,06,5.30
2006,10,11,04,07,5.30
2006,10,11,04,08,5.30
2006,10,11,04,09,5.30
2006,10,11,04,10,5.30
2006,10,11,04,11,5.20
2006,10,11,04,12,5.20
2006,10,11,04,13,5.20
2006,10,11,04,14,5.20
2006,10,11,04,15,5.10
2006,10,11,04,16,5.10
2006,10,11,04,17,5.10
2006,10,11,04,18,5.10
2006,10,11,04,19,5.10
2006,10,11,04,20,5.10
2006,10,11,04,21,5.10
2006,10,11,04,22,5.10
2006,10,11,04,23,5.10
2006,10,11,04,24,5.10
2006,10,11,04,25,5.10
2006,10,11,04,26,5.10
2006,10,11,04,27,5.10
2006,10,11,04,28,5.10
2006,10,11,04,29,5.10
2006,10,11,04,30,5.10
2006,10,11,04,31,5.10
2006,10,11,04,32,5.10
2006,10,11,04,33,5.00
2006,10,11,04,34,5.00
2006,10,11,04,35,5.00
2006,10,11,04,36,4.90
2006,10,11,04,37,4.90
2006,10,11,04,38,4.90
2006,10,11,04,39,4.90
2006,10,11,04,40,4.90
2006,10,11,04,41,4.80
2006,10,11,04,42,4.80
2006,10,11,04,43,4.80
2006,10,11,04,44,4.80
2006,10,11,04,45,4.80
2006,10,11,04,46,4.80
2006,10,11,04,47,4.80
2006,10,11,04,48,4.80
2006,10,11,04,49,4.80
2006,10,11,04,50,4.80
2006,10,11,04,51,4.80
2006,10,11,04,52,4.80
2006,10,11,04,53,4.80
2006,10,11,04,54,4.90
2006,10,11,04,55,4.80
2006,10,11,04,56,4.90
2006,10,11,04,57,4.90
2006,10,11,04,58,4.90
2006,10,11,04,59,4.90
2006,10,11,05,00,4.90
2006,10,11,05,01,5.00
2006,10,11,05,02,5.00
2006,10,11,05,03,5.00
2006,10,11,05,04,5.00
2006,10,11,05,05,5.00
2006,10,11,05,06,5.00
2006,10,11,05,07,4.90
2006,10,11,05,08,4.90
2006,10,11,05,09,4.90
2006,10,11,05,10,4.90
2006,10,11,05,11,4.80
2006,10,11,05,12,4.80
2006,10,11,05,13,4.80
2006,10,11,05,14,4.80
2006,10,11,05,15,4.80
2006,10,11,05,16,4.80
2006,10,11,05,17,4.80
2006,10,11,05,18,4.80
2006,10,11,05,19,4.80
2006,10,11,05,20,4.80
2006,10,11,05,21,4.80
2006,10,11,05,22,4.70
2006,10,11,05,23,4.70
2006,10,11,05,24,4.70
2006,10,11,05,25,4.70
2006,10,11,05,26,4.70
2006,10,11,05,27,4.70
2006,10,11,05,28,4.70
2006,10,11,05,29,4.70
2006,10,11,05,30,4.70
2006,10,11,05,31,4.70
2006,10,11,05,32,4.60
2006,10,11,05,33,4.60
2006,10,11,05,34,4.60
2006,10,11,05,35,4.50
2006,10,11,05,36,4.50
2006,10,11,05,37,4.40
2006,10,11,05,38,4.40
2006,10,11,05,39,4.40
2006,10,11,05,40,4.40
2006,10,11,05,41,4.30
2006,10,11,05,42,4.30
2006,10,11,05,43,4.30
2006,10,11,05,44,4.30
2006,10,11,05,45,4.30
2006,10,11,05,46,4.30
2006,10,11,05,47,4.30
2006,10,11,05,48,4.30
2006,10,11,05,49,4.40
2006,10,11,05,50,4.40
2006,10,11,05,51,4.40
2006,10,11,05,52,4.40
2006,10,11,05,53,4.40
2006,10,11,05,54,4.40
2006,10,11,05,55,4.40
2006,10,11,05,56,4.40
2006,10,11,05,57,4.40
2006,10,11,05,58,4.40
2006,10,11,05,59,4.40
2006,10,11,06,00,4.40
2006,10,11,06,01,4.40
2006,10,11,06,02,4.40
2006,10,11,06,03,4.50
2006,10,11,06,04,4.50
2006,10,11,06,05,4.50
2006,10,11,06,06,4.60
2006,10,11,06,07,4.60
2006,10,11,06,08,4.60
2006,10,11,06,09,4.60
2006,10,11,06,10,4.60
2006,10,11,06,11,4.60
2006,10,11,06,12,4.60
2006,10,11,06,13,4.60
2006,10,11,06,14,4.70
2006,10,11,06,15,4.70
2006,10,11,06,16,4.70
2006,10,11,06,17,4.70
2006,10,11,06,18,4.80
2006,10,11,06,19,4.80
2006,10,11,06,20,4.80
2006,10,11,06,21,4.70
2006,10,11,06,22,4.70
2006,10,11,06,23,4.70
2006,10,11,06,24,4.70
2006,10,11,06,25,4.70
2006,10,11,06,26,4.60
2006,10,11,06,27,4.70
2006,10,11,06,28,4.70
2006,10,11,06,29,4.70
2006,10,11,06,30,4.70
2006,10,11,06,31,4.60
2006,10,11,06,32,4.60
2006,10,11,06,33,4.60
2006,10,11,06,34,4.60
2006,10,11,06,35,4.60
2006,10,11,06,36,4.60
2006,10,11,06,37,4.60
2006,10,11,06,38,4.50
2006,10,11,06,39,4.50
2006,10,11,06,40,4.50
2006,10,11,06,41,4.50
2006,10,11,06,42,4.40
2006,10,11,06,43,4.40
2006,10,11,06,44,4.40
2006,10,11,06,45,4.40
2006,10,11,06,46,4.40
2006,10,11,06,47,4.40
2006,10,11,06,48,4.50
2006,10,11,06,49,4.50
2006,10,11,06,50,4.50
2006,10,11,06,51,4.50
2006,10,11,06,52,4.50
2006,10,11,06,53,4.40
2006,10,11,06,54,4.40
2006,10,11,06,55,4.40
2006,10,11,06,56,4.40
2006,10,11,06,57,4.30
2006,10,11,06,58,4.40
2006,10,11,06,59,4.40
2006,10,11,07,00,4.40
2006,10,11,07,01,4.40
2006,10,11,07,02,4.40
2006,10,11,07,03,4.40
2006,10,11,07,04,4.40
2006,10,11,07,05,4.40
2006,10,11,07,06,4.40
2006,10,11,07,07,4.40
2006,10,11,07,08,4.40
2006,10,11,07,09,4.40
2006,10,11,07,10,4.40
2006,10,11,07,11,4.40
2006,10,11,07,12,4.50
2006,10,11,07,13,4.50
2006,10,11,07,14,4.50
2006,10,11,07,15,4.50
2006,10,11,07,16,4.50
2006,10,11,07,17,4.60
2006,10,11,07,18,4.60
2006,10,11,07,19,4.60
2006,10,11,07,20,4.60
2006,10,11,07,21,4.60
2006,10,11,07,22,4.60
2006,10,11,07,23,4.60
2006,10,11,07,24,4.60
2006,10,11,07,25,4.60
2006,10,11,07,26,4.60
2006,10,11,07,27,4.60
2006,10,11,07,28,4.60
2006,10,11,07,29,4.60
2006,10,11,07,30,4.60
2006,10,11,07,31,4.60
2006,10,11,07,32,4.60
2006,10,11,07,33,4.60
2006,10,11,07,34,4.50
2006,10,11,07,35,4.50
2006,10,11,07,36,4.50
2006,10,11,07,37,4.50
2006,10,11,07,38,4.50
2006,10,11,07,39,4.50
2006,10,11,07,40,4.50
2006,10,11,07,41,4.50
2006,10,11,07,42,4.50
2006,10,11,07,43,4.60
2006,10,11,07,44,4.60
2006,10,11,07,45,4.60
2006,10,11,07,46,4.70
2006,10,11,07,47,4.70
2006,10,11,07,48,4.70
2006,10,11,07,49,4.70
2006,10,11,07,50,4.70
2006,10,11,07,51,4.70
2006,10,11,07,52,4.70
2006,10,11,07,53,4.70
2006,10,11,07,54,4.70
2006,10,11,07,55,4.80
2006,10,11,07,56,4.80
2006,10,11,07,57,4.80
2006,10,11,07,58,4.80
2006,10,11,07,59,4.80
2006,10,11,08,00,4.90
2006,10,11,08,01,4.90
2006,10,11,08,02,4.90
2006,10,11,08,03,4.90
2006,10,11,08,04,4.90
2006,10,11,08,05,4.90
2006,10,11,08,06,5.00
2006,10,11,08,07,5.00
2006,10,11,08,08,5.10
2006,10,11,08,09,5.10
2006,10,11,08,10,5.10
2006,10,11,08,11,5.20
2006,10,11,08,12,5.20
2006,10,11,08,13,5.30
2006,10,11,08,14,5.30
2006,10,11,08,15,5.40
2006,10,11,08,16,5.40
2006,10,11,08,17,5.50
2006,10,11,08,18,5.50
2006,10,11,08,19,5.60
2006,10,11,08,20,5.70
2006,10,11,08,21,5.70
2006,10,11,08,22,5.80
2006,10,11,08,23,5.80
2006,10,11,08,24,5.90
2006,10,11,08,25,5.90
2006,10,11,08,26,6.00
2006,10,11,08,27,6.00
2006,10,11,08,28,6.10
2006,10,11,08,29,6.20
2006,10,11,08,30,6.20
2006,10,11,08,31,6.30
2006,10,11,08,32,6.40
2006,10,11,08,33,6.50
2006,10,11,08,34,6.60
2006,10,11,08,35,6.70
2006,10,11,08,36,6.80
2006,10,11,08,37,6.90
2006,10,11,08,38,7.10
2006,10,11,08,39,7.10
2006,10,11,08,40,7.20
2006,10,11,08,41,7.20
2006,10,11,08,42,7.20
2006,10,11,08,43,7.30
2006,10,11,08,44,7.30
2006,10,11,08,45,7.40
2006,10,11,08,46,7.40
2006,10,11,08,47,7.50
2006,10,11,08,48,7.60
2006,10,11,08,49,7.70
2006,10,11,08,50,7.80
2006,10,11,08,51,7.90
2006,10,11,08,52,8.00
2006,10,11,08,53,8.20
2006,10,11,08,54,8.30
2006,10,11,08,55,8.40
2006,10,11,08,56,8.60
2006,10,11,08,57,8.80
2006,10,11,08,58,9.00
2006,10,11,08,59,9.10
2006,10,11,09,00,9.30
2006,10,11,09,01,9.50
2006,10,11,09,02,9.60
2006,10,11,09,03,9.80
2006,10,11,09,04,10.00
2006,10,11,09,05,10.20
2006,10,11,09,06,10.30
2006,10,11,09,07,10.40
2006,10,11,09,08,10.50
2006,10,11,09,09,10.60
2006,10,11,09,10,10.70
2006,10,11,09,11,10.80
2006,10,11,09,12,10.90
2006,10,11,09,13,10.90
2006,10,11,09,14,11.00
2006,10,11,09,15,11.00
2006,10,11,09,16,11.10
2006,10,11,09,17,11.20
2006,10,11,09,18,11.20
2006,10,11,09,19,11.30
2006,10,11,09,20,11.30
2006,10,11,09,21,11.40
2006,10,11,09,22,11.50
2006,10,11,09,23,11.60
2006,10,11,09,24,11.60
2006,10,11,09,25,11.70
2006,10,11,09,26,11.70
2006,10,11,09,27,11.70
2006,10,11,09,28,11.70
2006,10,11,09,29,11.70
2006,10,11,09,30,11.80
2006,10,11,09,31,11.80
2006,10,11,09,32,11.90
2006,10,11,09,33,11.90
2006,10,11,09,34,12.00
2006,10,11,09,35,12.10
2006,10,11,09,36,12.10
2006,10,11,09,37,12.10
2006,10,11,09,38,12.10
2006,10,11,09,39,12.10
2006,10,11,09,40,12.10
2006,10,11,09,41,12.10
2006,10,11,09,42,12.10
2006,10,11,09,43,12.20
2006,10,11,09,44,12.20
2006,10,11,09,45,12.20
2006,10,11,09,46,12.30
2006,10,11,09,47,12.40
2006,10,11,09,48,12.50
2006,10,11,09,49,12.60
2006,10,11,09,50,12.70
2006,10,11,09,51,12.70
2006,10,11,09,52,12.70
2006,10,11,09,53,12.80
2006,10,11,09,54,12.80
2006,10,11,09,55,12.80
2006,10,11,09,56,12.90
2006,10,11,09,57,13.00
2006,10,11,09,58,13.10
2006,10,11,09,59,13.10
2006,10,11,10,00,13.10
2006,10,11,10,01,13.10
2006,10,11,10,02,13.20
2006,10,11,10,03,13.20
2006,10,11,10,04,13.30
2006,10,11,10,05,13.30
2006,10,11,10,06,13.40
2006,10,11,10,07,13.50
2006,10,11,10,08,13.60
2006,10,11,10,09,13.70
2006,10,11,10,10,13.70
2006,10,11,10,11,13.80
2006,10,11,10,12,13.80
2006,10,11,10,13,13.80
2006,10,11,10,14,13.90
2006,10,11,10,15,13.90
2006,10,11,10,16,13.90
2006,10,11,10,17,13.90
2006,10,11,10,18,14.00
2006,10,11,10,19,14.10
2006,10,11,10,20,14.10
2006,10,11,10,21,14.20
2006,10,11,10,22,14.20
2006,10,11,10,23,14.20
2006,10,11,10,24,14.20
2006,10,11,10,25,14.20
2006,10,11,10,26,14.30
2006,10,11,10,27,14.30
2006,10,11,10,28,14.30
2006,10,11,10,29,14.30
2006,10,11,10,30,14.30
2006,10,11,10,31,14.30
2006,10,11,10,32,14.20
2006,10,11,10,33,14.20
2006,10,11,10,34,14.20
2006,10,11,10,35,14.20
2006,10,11,10,36,14.20
2006,10,11,10,37,14.30
2006,10,11,10,38,14.30
2006,10,11,10,39,14.30
2006,10,11,10,40,14.40
2006,10,11,10,41,14.40
2006,10,11,10,42,14.40
2006,10,11,10,43,14.30
2006,10,11,10,44,14.30
2006,10,11,10,45,14.30
2006,10,11,10,46,14.40
2006,10,11,10,47,14.30
2006,10,11,10,48,14.30
2006,10,11,10,49,14.20
2006,10,11,10,50,14.20
2006,10,11,10,51,14.30
2006,10,11,10,52,14.30
2006,10,11,10,53,14.30
2006,10,11,10,54,14.40
2006,10,11,10,55,14.50
2006,10,11,10,56,14.40
2006,10,11,10,57,14.40
2006,10,11,10,58,14.40
2006,10,11,10,59,14.40
2006,10,11,11,00,14.50
2006,10,11,11,01,14.50
2006,10,11,11,02,14.60
2006,10,11,11,03,14.70
2006,10,11,11,04,14.70
2006,10,11,11,05,14.80
2006,10,11,11,06,14.80
2006,10,11,11,07,14.70
2006,10,11,11,08,14.60
2006,10,11,11,09,14.50
2006,10,11,11,10,14.40
2006,10,11,11,11,14.50
2006,10,11,11,12,14.50
2006,10,11,11,13,14.60
2006,10,11,11,14,14.60
2006,10,11,11,15,14.70
2006,10,11,11,16,14.70
2006,10,11,11,17,14.70
2006,10,11,11,18,14.60
2006,10,11,11,19,14.60
2006,10,11,11,20,14.60
2006,10,11,11,21,14.60
2006,10,11,11,22,14.60
2006,10,11,11,23,14.70
2006,10,11,11,24,14.80
2006,10,11,11,25,15.00
2006,10,11,11,26,15.00
2006,10,11,11,27,15.10
2006,10,11,11,28,15.20
2006,10,11,11,29,15.20
2006,10,11,11,30,15.30
2006,10,11,11,31,15.40
2006,10,11,11,32,15.50
2006,10,11,11,33,15.50
2006,10,11,11,34,15.60
2006,10,11,11,35,15.60
2006,10,11,11,36,15.60
2006,10,11,11,37,15.60
2006,10,11,11,38,15.50
2006,10,11,11,39,15.50
2006,10,11,11,40,15.60
2006,10,11,11,41,15.60
2006,10,11,11,42,15.60
2006,10,11,11,43,15.60
2006,10,11,11,44,15.60
2006,10,11,11,45,15.60
2006,10,11,11,46,15.70
2006,10,11,11,47,15.80
2006,10,11,11,48,15.80
2006,10,11,11,49,15.80
2006,10,11,11,50,15.90
2006,10,11,11,51,15.90
2006,10,11,11,52,16.00
2006,10,11,11,53,16.00
2006,10,11,11,54,16.00
2006,10,11,11,55,16.10
2006,10,11,11,56,16.00
2006,10,11,11,57,16.10
2006,10,11,11,58,16.10
2006,10,11,11,59,16.10
2006,10,11,12,00,16.20
2006,10,11,12,01,16.30
2006,10,11,12,02,16.30
2006,10,11,12,03,16.40
2006,10,11,12,04,16.40
2006,10,11,12,05,16.40
2006,10,11,12,06,16.50
2006,10,11,12,07,16.50
2006,10,11,12,08,16.40
2006,10,11,12,09,16.30
2006,10,11,12,10,16.20
2006,10,11,12,11,16.30
2006,10,11,12,12,16.40
2006,10,11,12,13,16.40
2006,10,11,12,14,16.50
2006,10,11,12,15,16.60
2006,10,11,12,16,16.60
2006,10,11,12,17,16.70
2006,10,11,12,18,16.70
2006,10,11,12,19,16.80
2006,10,11,12,20,16.80
2006,10,11,12,21,16.70
2006,10,11,12,22,16.60
2006,10,11,12,23,16.50
2006,10,11,12,24,16.30
2006,10,11,12,25,16.20
2006,10,11,12,26,16.20
2006,10,11,12,27,16.10
2006,10,11,12,28,16.00
2006,10,11,12,29,15.90
2006,10,11,12,30,15.90
2006,10,11,12,31,15.90
2006,10,11,12,32,15.90
2006,10,11,12,33,15.90
2006,10,11,12,34,15.80
2006,10,11,12,35,15.90
2006,10,11,12,36,15.90
2006,10,11,12,37,16.00
2006,10,11,12,38,16.00
2006,10,11,12,39,16.00
2006,10,11,12,40,16.20
2006,10,11,12,41,16.30
2006,10,11,12,42,16.30
2006,10,11,12,43,16.30
2006,10,11,12,44,16.20
2006,10,11,12,45,16.20
2006,10,11,12,46,16.20
2006,10,11,12,47,16.20
2006,10,11,12,48,16.30
2006,10,11,12,49,16.30
2006,10,11,12,50,16.40
2006,10,11,12,51,16.40
2006,10,11,12,52,16.40
2006,10,11,12,53,16.40
2006,10,11,12,54,16.30
2006,10,11,12,55,16.30
2006,10,11,12,56,16.30
2006,10,11,12,57,16.30
2006,10,11,12,58,16.40
2006,10,11,12,59,16.40
2006,10,11,13,00,16.50
2006,10,11,13,01,16.50
2006,10,11,13,02,16.50
2006,10,11,13,03,16.60
2006,10,11,13,04,16.60
2006,10,11,13,05,16.60
2006,10,11,13,06,16.60
2006,10,11,13,07,16.60
2006,10,11,13,08,16.60
2006,10,11,13,09,16.60
2006,10,11,13,10,16.60
2006,10,11,13,11,16.60
2006,10,11,13,12,16.70
2006,10,11,13,13,16.70
2006,10,11,13,14,16.70
2006,10,11,13,15,16.70
2006,10,11,13,16,16.70
2006,10,11,13,17,16.70
2006,10,11,13,18,16.80
2006,10,11,13,19,16.90
2006,10,11,13,20,17.00
2006,10,11,13,21,17.20
2006,10,11,13,22,17.30
2006,10,11,13,23,17.40
2006,10,11,13,24,17.50
2006,10,11,13,25,17.50
2006,10,11,13,26,17.60
2006,10,11,13,27,17.70
2006,10,11,13,28,17.70
2006,10,11,13,29,17.80
2006,10,11,13,30,17.90
2006,10,11,13,31,17.90
2006,10,11,13,32,17.90
2006,10,11,13,33,17.90
2006,10,11,13,34,18.00
2006,10,11,13,35,18.00
2006,10,11,13,36,18.10
2006,10,11,13,37,18.10
2006,10,11,13,38,18.00
2006,10,11,13,39,18.00
2006,10,11,13,40,18.00
2006,10,11,13,41,18.10
2006,10,11,13,42,18.10
2006,10,11,13,43,18.10
2006,10,11,13,44,18.20
2006,10,11,13,45,18.20
2006,10,11,13,46,18.20
2006,10,11,13,47,18.20
2006,10,11,13,48,18.30
2006,10,11,13,49,18.20
2006,10,11,13,50,18.20
2006,10,11,13,51,18.20
2006,10,11,13,52,18.10
2006,10,11,13,53,17.90
2006,10,11,13,54,17.80
2006,10,11,13,55,17.80
2006,10,11,13,56,17.70
2006,10,11,13,57,17.60
2006,10,11,13,58,17.50
2006,10,11,13,59,17.60
2006,10,11,14,00,17.60
2006,10,11,14,01,17.50
2006,10,11,14,02,17.40
2006,10,11,14,03,17.40
2006,10,11,14,04,17.40
2006,10,11,14,05,17.40
2006,10,11,14,06,17.50
2006,10,11,14,07,17.50
2006,10,11,14,08,17.50
2006,10,11,14,09,17.60
2006,10,11,14,10,17.60
2006,10,11,14,11,17.60
2006,10,11,14,12,17.60
2006,10,11,14,13,17.60
2006,10,11,14,14,17.60
2006,10,11,14,15,17.60
2006,10,11,14,16,17.60
2006,10,11,14,17,17.50
2006,10,11,14,18,17.50
2006,10,11,14,19,17.60
2006,10,11,14,20,17.70
2006,10,11,14,21,17.70
2006,10,11,14,22,17.80
2006,10,11,14,23,17.80
2006,10,11,14,24,17.80
2006,10,11,14,25,17.80
2006,10,11,14,26,17.80
2006,10,11,14,27,17.80
2006,10,11,14,28,17.80
2006,10,11,14,29,17.70
2006,10,11,14,30,17.70
2006,10,11,14,31,17.60
2006,10,11,14,32,17.60
2006,10,11,14,33,17.60
2006,10,11,14,34,17.60
2006,10,11,14,35,17.70
2006,10,11,14,36,17.70
2006,10,11,14,37,17.80
2006,10,11,14,38,17.80
2006,10,11,14,39,17.80
2006,10,11,14,40,17.70
2006,10,11,14,41,17.70
2006,10,11,14,42,17.70
2006,10,11,14,43,17.80
2006,10,11,14,44,17.80
2006,10,11,14,45,17.70
2006,10,11,14,46,17.70
2006,10,11,14,47,17.70
2006,10,11,14,48,17.70
2006,10,11,14,49,17.70
2006,10,11,14,50,17.70
2006,10,11,14,51,17.70
2006,10,11,14,52,17.80
2006,10,11,14,53,17.80
2006,10,11,14,54,17.80
2006,10,11,14,55,17.80
2006,10,11,14,56,17.90
2006,10,11,14,57,18.00
2006,10,11,14,58,18.00
2006,10,11,14,59,18.00
2006,10,11,15,00,18.00
2006,10,11,15,01,18.00
2006,10,11,15,02,18.10
2006,10,11,15,03,18.20
2006,10,11,15,04,18.20
2006,10,11,15,05,18.20
2006,10,11,15,06,18.20
2006,10,11,15,07,18.10
2006,10,11,15,08,18.10
2006,10,11,15,09,18.00
2006,10,11,15,10,18.00
2006,10,11,15,11,18.00
2006,10,11,15,12,18.00
2006,10,11,15,13,18.00
2006,10,11,15,14,18.10
2006,10,11,15,15,18.20
2006,10,11,15,16,18.20
2006,10,11,15,17,18.20
2006,10,11,15,18,18.20
2006,10,11,15,19,18.20
2006,10,11,15,20,18.30
2006,10,11,15,21,18.40
2006,10,11,15,22,18.40
2006,10,11,15,23,18.40
2006,10,11,15,24,18.40
2006,10,11,15,25,18.40
2006,10,11,15,26,18.40
2006,10,11,15,27,18.40
2006,10,11,15,28,18.50
2006,10,11,15,29,18.50
2006,10,11,15,30,18.60
2006,10,11,15,31,18.60
2006,10,11,15,32,18.70
2006,10,11,15,33,18.70
2006,10,11,15,34,18.80
2006,10,11,15,35,18.80
2006,10,11,15,36,18.90
2006,10,11,15,37,18.90
2006,10,11,15,38,19.00
2006,10,11,15,39,19.10
2006,10,11,15,40,19.20
2006,10,11,15,41,19.20
2006,10,11,15,42,19.20
2006,10,11,15,43,19.30
2006,10,11,15,44,19.20
2006,10,11,15,45,19.20
2006,10,11,15,46,19.10
2006,10,11,15,47,19.10
2006,10,11,15,48,19.00
2006,10,11,15,49,18.90
2006,10,11,15,50,18.90
2006,10,11,15,51,18.90
2006,10,11,15,52,18.80
2006,10,11,15,53,18.80
2006,10,11,15,54,18.70
2006,10,11,15,55,18.70
2006,10,11,15,56,18.70
2006,10,11,15,57,18.70
2006,10,11,15,58,18.60
2006,10,11,15,59,18.50
2006,10,11,16,00,18.40
2006,10,11,16,01,18.30
2006,10,11,16,02,18.20
2006,10,11,16,03,18.10
2006,10,11,16,04,18.00
2006,10,11,16,05,17.90
2006,10,11,16,06,17.80
2006,10,11,16,07,17.80
2006,10,11,16,08,17.80
2006,10,11,16,09,17.80
2006,10,11,16,10,17.80
2006,10,11,16,11,17.80
2006,10,11,16,12,17.80
2006,10,11,16,13,17.60
2006,10,11,16,14,17.50
2006,10,11,16,15,17.30
2006,10,11,16,16,17.20
2006,10,11,16,17,17.20
2006,10,11,16,18,17.20
2006,10,11,16,19,17.20
2006,10,11,16,20,17.10
2006,10,11,16,21,17.10
2006,10,11,16,22,17.10
2006,10,11,16,23,17.00
2006,10,11,16,24,16.90
2006,10,11,16,25,16.90
2006,10,11,16,26,16.80
2006,10,11,16,27,16.80
2006,10,11,16,28,16.70
2006,10,11,16,29,16.60
2006,10,11,16,30,16.60
2006,10,11,16,31,16.50
2006,10,11,16,32,16.50
2006,10,11,16,33,16.40
2006,10,11,16,34,16.50
2006,10,11,16,35,16.50
2006,10,11,16,36,16.60
2006,10,11,16,37,16.60
2006,10,11,16,38,16.70
2006,10,11,16,39,16.70
2006,10,11,16,40,16.60
2006,10,11,16,41,16.60
2006,10,11,16,42,16.70
2006,10,11,16,43,16.70
2006,10,11,16,44,16.70
2006,10,11,16,45,16.70
2006,10,11,16,46,16.70
2006,10,11,16,47,16.60
2006,10,11,16,48,16.60
2006,10,11,16,49,16.50
2006,10,11,16,50,16.50
2006,10,11,16,51,16.50
2006,10,11,16,52,16.60
2006,10,11,16,53,16.60
2006,10,11,16,54,16.60
2006,10,11,16,55,16.70
2006,10,11,16,56,16.80
2006,10,11,16,57,16.90
2006,10,11,16,58,16.90
2006,10,11,16,59,17.00
2006,10,11,17,00,17.00
2006,10,11,17,01,17.10
2006,10,11,17,02,17.10
2006,10,11,17,03,17.10
2006,10,11,17,04,17.00
2006,10,11,17,05,17.00
2006,10,11,17,06,16.80
2006,10,11,17,07,16.80
2006,10,11,17,08,16.70
2006,10,11,17,09,16.60
2006,10,11,17,10,16.60
2006,10,11,17,11,16.60
2006,10,11,17,12,16.50
2006,10,11,17,13,16.50
2006,10,11,17,14,16.50
2006,10,11,17,15,16.40
2006,10,11,17,16,16.40
2006,10,11,17,17,16.50
2006,10,11,17,18,16.50
2006,10,11,17,19,16.50
2006,10,11,17,20,16.50
2006,10,11,17,21,16.50
2006,10,11,17,22,16.40
2006,10,11,17,23,16.40
2006,10,11,17,24,16.40
2006,10,11,17,25,16.40
2006,10,11,17,26,16.40
2006,10,11,17,27,16.40
2006,10,11,17,28,16.30
2006,10,11,17,29,16.30
2006,10,11,17,30,16.30
2006,10,11,17,31,16.30
2006,10,11,17,32,16.30
2006,10,11,17,33,16.30
2006,10,11,17,34,16.30
2006,10,11,17,35,16.30
2006,10,11,17,36,16.30
2006,10,11,17,37,16.30
2006,10,11,17,38,16.30
2006,10,11,17,39,16.40
2006,10,11,17,40,16.40
2006,10,11,17,41,16.40
2006,10,11,17,42,16.50
2006,10,11,17,43,16.50